Regional Weather Roundup
Issued by NWS Cleveland, OH

Home | Current Version | Previous Version | Graphics & Text | Print | Product List | Glossary On
Versions: 1 2 3 4 5 6 7 8 9 10 11 12 13 14 15 16 17 18 19 20 21 22 23 24 25 26 27 28 29 30 31 32 33 34 35 36 37 38 39 40 41 42 43 44 45 46 47 48 49 50
000
ASUS41 KCLE 201602
RWRCLE
OHIO REGIONAL WEATHER ROUNDUP
NATIONAL WEATHER SERVICE CLEVELAND, OH
1100 AM EST MON NOV 20 2017

NOTE: "FAIR" INDICATES FEW OR NO CLOUDS BELOW 12,000 FEET WITH NO
SIGNIFICANT WEATHER AND/OR OBSTRUCTIONS TO VISIBILITY.

OHZ001>008-015>018-024>027-034-035-043-044-201700-
   NORTHWEST OHIO

CITY           SKY/WX    TMP DP  RH WIND       PRES   REMARKS
DEFIANCE       SUNNY     39  24  55 SW18G28   30.06F
FINDLAY        SUNNY     38  26  62 S17       30.09F
TOLEDO EXPRESS SUNNY     40  26  57 S15G22    30.05F
TOLEDO EXEC    SUNNY     39  25  57 SW22G29   30.07F
LIMA           SUNNY     36  27  69 S13       30.10F
$$

OHZ009>014-019>023-028>033-038-089-201700-
   NORTHEAST OHIO

CITY           SKY/WX    TMP DP  RH WIND       PRES   REMARKS
CLE-HOPKINS    MOSUNNY   38  26  62 S16G23    30.12F
CLE-LAKEFRONT  SUNNY     39  24  55 S15G25    30.09F
CUY CO. ARPT   MOSUNNY   39  27  60 SW15      30.09F
LORAIN-ELYRIA  SUNNY     37  21  52 SW20      30.10F
ASHTABULA      SUNNY     34  26  72 SW13      30.08F WCI  25
AKRON-CANTON   MOSUNNY   35  23  61 SW15      30.13F WCI  25
WOOSTER        SUNNY     35  24  64 SW13G21   30.14S WCI  26
MANSFIELD      SUNNY     37  24  59 S16       30.12F
YOUNGSTOWN     MOSUNNY   35  24  64 S12       30.11S WCI  27
$$

OHZ042-051>053-060>062-070>072-077>081-201700-
  SOUTHWEST OHIO

CITY           SKY/WX    TMP DP  RH WIND       PRES   REMARKS
CINC-COVINGTON PTSUNNY   37  25  61 S13       30.22S
CINC-LUNKEN    SUNNY     38  26  62 S9        30.25F
HAMILTON       SUNNY     40  24  53 SW8       30.23F
DAYTON         MOSUNNY   36  25  64 S17       30.18F
WRIGHT-PAT AFB MOSUNNY   36  19  51 S7        30.20S
DAYTON GENERAL SUNNY     36  25  64 S14       30.19F
WILMINGTON     SUNNY     35  27  72 SW15      30.20F WCI  25
$$

OHZ036-037-039>041-045>050-054>059-063>069-073>076-082>088-201700-
  CENTRAL AND SOUTHEAST OHIO

CITY           SKY/WX    TMP DP  RH WIND       PRES   REMARKS
COLUMBUS       SUNNY     37  25  61 S13       30.20F
OSU AIRPORT    SUNNY     36  26  67 S13       30.18F
BOLTON FIELD   SUNNY     36  27  69 S9        30.21F
RICKENBACK AFB SUNNY     35  25  66 SW10      30.22F WCI  28
NEWARK         SUNNY     36  23  59 SW12      30.20F
MARION         SUNNY     36  26  67 SW15      30.15F
LANCASTER      SUNNY     36  24  62 SW9       30.22S
ZANESVILLE     SUNNY     36  22  56 S9        30.21F
NEW PHILLY     NOT AVBL
$$



USA.gov is the U.S. government's official web portal to all federal, state and local government web resources and services.